Location: Banios
(43.0451°N, 0.2335°E)
Time: 08:41:21
(UTC+00:00)

A-11 Canister half - Pass Details

Date: 19 May 2021
Orbit: 1527 x 1681 km, 47.3° (Epoch: 22 June)

Event Time Altitude Azimuth Distance (km) Brightness Sun altitude
Rises 06:54:41 0° 224° (SW) 4,678 11.1 24.0°
Reaches altitude 10° 06:57:44 10° 220° (SW) 3,708 10.7 24.6°
Maximum altitude 07:06:53 60° 144° (SE) 1,756 10.0 26.2°
Drops below altitude 10° 07:16:19 10° 68° (ENE) 3,825 12.4 28.0°
Sets 07:19:31 0° 65° (ENE) 4,834 12.6 28.5°
